TimeEDT,TemperatureF,Dew PointF,Humidity,Sea Level PressureIn,VisibilityMPH,Wind Direction,Wind SpeedMPH,Gust SpeedMPH,PrecipitationIn,Events,Conditions,WindDirDegrees,DateUTC
12:56 AM,55.9,53.1,90,29.98,10.0,Calm,Calm,-,N/A,,Scattered Clouds,0,2012-10-02 04:56:00
1:56 AM,57.0,54.0,89,29.99,10.0,Calm,Calm,-,N/A,,Mostly Cloudy,0,2012-10-02 05:56:00
2:56 AM,57.9,55.0,90,29.98,10.0,Calm,Calm,-,N/A,,Mostly Cloudy,0,2012-10-02 06:56:00
3:56 AM,59.0,55.9,90,30.00,10.0,Calm,Calm,-,N/A,,Overcast,0,2012-10-02 07:56:00
4:56 AM,59.0,55.9,90,30.00,10.0,Calm,Calm,-,N/A,,Overcast,0,2012-10-02 08:56:00
5:56 AM,60.1,57.0,90,30.01,10.0,Calm,Calm,-,N/A,,Overcast,0,2012-10-02 09:56:00
6:56 AM,60.1,57.0,90,30.02,10.0,Calm,Calm,-,N/A,,Overcast,0,2012-10-02 10:56:00
7:56 AM,62.1,57.9,86,30.04,10.0,Calm,Calm,-,N/A,,Overcast,0,2012-10-02 11:56:00
8:56 AM,66.0,59.0,78,30.04,10.0,Calm,Calm,-,N/A,,Overcast,0,2012-10-02 12:56:00
9:56 AM,68.0,57.9,70,30.04,10.0,SE,3.5,-,N/A,,Mostly Cloudy,130,2012-10-02 13:56:00
10:56 AM,69.1,57.0,65,30.04,10.0,ESE,4.6,-,N/A,,Clear,110,2012-10-02 14:56:00
11:56 AM,72.0,53.1,51,30.04,10.0,SSE,8.1,-,N/A,,Partly Cloudy,150,2012-10-02 15:56:00
12:56 PM,69.1,55.9,63,30.03,10.0,SE,4.6,-,N/A,,Overcast,130,2012-10-02 16:56:00
1:56 PM,66.9,59.0,76,30.03,10.0,Calm,Calm,-,0.00,Rain,Light Rain,0,2012-10-02 17:56:00
2:56 PM,66.0,62.1,87,30.02,9.0,ESE,3.5,-,0.03,Rain,Light Rain,110,2012-10-02 18:56:00
4:27 PM,64.4,62.6,94,30.00,10.0,Calm,Calm,-,0.01,Rain,Light Rain,0,2012-10-02 20:27:00
4:56 PM,64.9,62.1,90,30.00,6.0,ESE,4.6,-,0.02,Rain,Light Rain,110,2012-10-02 20:56:00
5:56 PM,64.9,63.0,93,30.00,6.0,Calm,Calm,-,0.01,Rain,Light Rain,0,2012-10-02 21:56:00
6:13 PM,64.4,62.6,94,30.00,5.0,Calm,Calm,-,0.01,Rain,Light Rain,0,2012-10-02 22:13:00
6:42 PM,64.4,62.6,94,29.99,7.0,Variable,3.5,-,0.02,Rain,Light Rain,0,2012-10-02 22:42:00
6:56 PM,64.9,63.0,93,29.99,8.0,Calm,Calm,-,0.02,,Overcast,0,2012-10-02 22:56:00
7:40 PM,64.4,62.6,94,30.00,2.5,Calm,Calm,-,0.02,Rain,Light Rain,0,2012-10-02 23:40:00
7:49 PM,64.4,62.6,94,30.01,4.0,Calm,Calm,-,0.02,Rain,Light Rain,0,2012-10-02 23:49:00
7:56 PM,64.9,63.0,93,30.01,5.0,East,4.6,-,0.02,,Overcast,90,2012-10-02 23:56:00
8:25 PM,66.2,64.4,94,30.00,6.0,Variable,3.5,-,N/A,,Overcast,0,2012-10-03 00:25:00
8:56 PM,66.9,64.9,93,30.00,6.0,Variable,4.6,-,N/A,,Overcast,0,2012-10-03 00:56:00
10:56 PM,69.1,66.9,93,29.99,4.0,Calm,Calm,-,0.01,,Overcast,0,2012-10-03 02:56:00
11:40 PM,69.8,68.0,94,30.00,2.0,SE,3.5,-,0.01,Rain,Light Rain,130,2012-10-03 03:40:00
11:56 PM,69.1,68.0,96,29.99,2.0,SE,3.5,-,0.01,,Overcast,130,2012-10-03 03:56:00